Time,TemperatureF,DewpointF,PressureIn,WindDirection,WindDirectionDegrees,WindSpeedMPH,WindSpeedGustMPH,Humidity,HourlyPrecipIn,Conditions,Clouds,dailyrainin,SolarRadiationWatts/m^2,SoftwareType,DateUTC
2013-08-03 00:01:00,66.3,61.7,29.92,WNW,294,0.0,0.0,85,0.00,,CLR,0.00,0.00,VWS V14.01,2013-08-03 04:01:00,
2013-08-03 00:02:00,66.3,61.7,29.92,WNW,294,0.0,0.0,85,0.00,,CLR,0.00,0.00,VWS V14.01,2013-08-03 04:02:00,
2013-08-03 00:04:00,66.3,61.7,29.92,WNW,294,0.0,0.0,85,0.00,,CLR,0.00,0.00,VWS V14.01,2013-08-03 04:04:00,
2013-08-03 00:09:00,66.1,61.5,29.93,WNW,294,0.0,0.0,85,0.00,,CLR,0.00,0.00,VWS V14.01,2013-08-03 04:09:00,
2013-08-03 00:14:00,66.1,61.5,29.92,WNW,294,0.0,0.0,85,0.00,,CLR,0.00,0.00,VWS V14.01,2013-08-03 04:14:00,
2013-08-03 00:20:00,66.1,61.5,29.92,WNW,294,0.0,0.0,85,0.00,,CLR,0.00,0.00,VWS V14.01,2013-08-03 04:20:00,
2013-08-03 00:25:00,66.1,61.5,29.92,WNW,294,0.0,0.0,85,0.00,,CLR,0.00,0.00,VWS V14.01,2013-08-03 04:25:00,
2013-08-03 00:30:00,66.1,61.5,29.92,WNW,292,0.0,0.0,85,0.00,,CLR,0.00,0.00,VWS V14.01,2013-08-03 04:30:00,
2013-08-03 00:35:00,66.2,61.9,29.91,WNW,293,0.0,0.0,86,0.00,,CLR,0.00,0.00,VWS V14.01,2013-08-03 04:35:00,
2013-08-03 00:40:00,66.2,61.9,29.91,WNW,292,0.0,0.0,86,0.00,,CLR,0.00,0.00,VWS V14.01,2013-08-03 04:40:00,
2013-08-03 00:45:00,66.2,61.9,29.91,WNW,293,0.0,0.0,86,0.00,,CLR,0.00,0.00,VWS V14.01,2013-08-03 04:45:00,
2013-08-03 00:50:00,66.3,62.0,29.91,WNW,293,0.0,0.0,86,0.00,,CLR,0.00,0.00,VWS V14.01,2013-08-03 04:50:00,
2013-08-03 00:55:00,66.3,62.0,29.91,WNW,292,0.0,0.0,86,0.00,,CLR,0.00,0.00,VWS V14.01,2013-08-03 04:55:00,
2013-08-03 01:00:00,66.3,62.0,29.92,WNW,293,0.0,0.0,86,0.00,,CLR,0.00,0.00,VWS V14.01,2013-08-03 05:00:00,
2013-08-03 01:06:00,66.3,62.0,29.92,WNW,292,0.0,0.0,86,0.00,,CLR,0.00,0.00,VWS V14.01,2013-08-03 05:06:00,
2013-08-03 01:11:00,66.3,62.3,29.91,SSW,213,0.0,1.0,87,0.00,,CLR,0.00,0.00,VWS V14.01,2013-08-03 05:11:00,
2013-08-03 01:16:00,66.4,62.4,29.91,SSW,200,1.0,1.0,87,0.00,,CLR,0.00,0.00,VWS V14.01,2013-08-03 05:16:00,
2013-08-03 01:21:00,66.4,62.4,29.91,SSW,202,1.0,2.0,87,0.00,,CLR,0.00,0.00,VWS V14.01,2013-08-03 05:21:00,
2013-08-03 01:26:00,66.4,62.7,29.91,SSW,202,0.0,1.0,88,0.00,,CLR,0.00,0.00,VWS V14.01,2013-08-03 05:26:00,
2013-08-03 01:32:00,66.3,62.6,29.91,SSW,202,0.0,1.0,88,0.00,,CLR,0.00,0.00,VWS V14.01,2013-08-03 05:32:00,
2013-08-03 01:37:00,66.3,62.6,29.91,SSW,203,0.0,1.0,88,0.00,,CLR,0.00,0.00,VWS V14.01,2013-08-03 05:37:00,
2013-08-03 01:42:00,66.2,62.5,29.91,SSW,203,0.0,0.0,88,0.00,,CLR,0.00,0.00,VWS V14.01,2013-08-03 05:42:00,
2013-08-03 01:47:00,66.2,62.5,29.91,SSW,203,0.0,0.0,88,0.00,,CLR,0.00,0.00,VWS V14.01,2013-08-03 05:47:00,
2013-08-03 01:52:00,66.1,62.5,29.91,SSW,203,0.0,0.0,88,0.00,,CLR,0.00,0.00,VWS V14.01,2013-08-03 05:52:00,
2013-08-03 01:57:00,66.0,62.3,29.91,SSW,203,0.0,0.0,88,0.00,,CLR,0.00,0.00,VWS V14.01,2013-08-03 05:57:00,
2013-08-03 02:02:00,65.9,62.2,29.91,SSW,203,0.0,0.0,88,0.00,,CLR,0.00,0.00,VWS V14.01,2013-08-03 06:02:00,
2013-08-03 02:07:00,65.8,62.2,29.91,SSW,203,0.0,0.0,88,0.00,,CLR,0.00,0.00,VWS V14.01,2013-08-03 06:07:00,
2013-08-03 02:12:00,65.7,62.0,29.91,SSW,203,0.0,0.0,88,0.00,,CLR,0.00,0.00,VWS V14.01,2013-08-03 06:12:00,
2013-08-03 02:17:00,65.6,62.3,29.90,SSW,203,0.0,1.0,89,0.00,,CLR,0.00,0.00,VWS V14.01,2013-08-03 06:17:00,
2013-08-03 02:22:00,65.5,62.2,29.90,SSW,203,0.0,0.0,89,0.00,,CLR,0.00,0.00,VWS V14.01,2013-08-03 06:22:00,
2013-08-03 02:27:00,65.5,62.2,29.90,SSW,203,0.0,0.0,89,0.00,,CLR,0.00,0.00,VWS V14.01,2013-08-03 06:27:00,
2013-08-03 02:32:00,65.4,62.1,29.90,SSW,203,0.0,0.0,89,0.00,,CLR,0.00,0.00,VWS V14.01,2013-08-03 06:32:00,
2013-08-03 02:37:00,65.4,62.1,29.90,SSW,203,0.0,1.0,89,0.00,,CLR,0.00,0.00,VWS V14.01,2013-08-03 06:37:00,
2013-08-03 02:43:00,65.3,62.3,29.91,SSW,203,0.0,0.0,90,0.00,,CLR,0.00,0.00,VWS V14.01,2013-08-03 06:43:00,
2013-08-03 02:48:00,65.3,62.0,29.90,SSW,203,0.0,0.0,89,0.00,,CLR,0.00,0.00,VWS V14.01,2013-08-03 06:48:00,
2013-08-03 02:53:00,65.3,62.3,29.90,SSW,203,0.0,0.0,90,0.00,,CLR,0.00,0.00,VWS V14.01,2013-08-03 06:53:00,
2013-08-03 02:58:00,65.3,62.3,29.90,SSW,203,0.0,0.0,90,0.00,,CLR,0.00,0.00,VWS V14.01,2013-08-03 06:58:00,
2013-08-03 03:03:00,65.3,62.3,29.90,SSW,203,0.0,0.0,90,0.00,,CLR,0.00,0.00,VWS V14.01,2013-08-03 07:03:00,
2013-08-03 03:08:00,65.3,62.3,29.90,SSW,203,0.0,0.0,90,0.00,,CLR,0.00,0.00,VWS V14.01,2013-08-03 07:08:00,
2013-08-03 03:13:00,65.4,62.4,29.90,SSW,203,0.0,0.0,90,0.00,,CLR,0.00,0.00,VWS V14.01,2013-08-03 07:13:00,
2013-08-03 03:18:00,65.4,62.4,29.90,SSW,203,0.0,0.0,90,0.00,,CLR,0.00,0.00,VWS V14.01,2013-08-03 07:18:00,
2013-08-03 03:23:00,65.4,62.4,29.90,SSW,203,0.0,1.0,90,0.00,,CLR,0.00,0.00,VWS V14.01,2013-08-03 07:23:00,
2013-08-03 03:28:00,65.5,62.8,29.90,SSW,203,0.0,1.0,91,0.00,,CLR,0.00,0.00,VWS V14.01,2013-08-03 07:28:00,
2013-08-03 03:33:00,65.5,62.8,29.90,SSW,203,0.0,1.0,91,0.00,,CLR,0.00,0.00,VWS V14.01,2013-08-03 07:33:00,
2013-08-03 03:38:00,65.6,62.9,29.90,SSW,203,0.0,1.0,91,0.00,,CLR,0.00,0.00,VWS V14.01,2013-08-03 07:38:00,
2013-08-03 03:43:00,65.6,62.9,29.90,SSW,203,0.0,1.0,91,0.00,,CLR,0.00,0.00,VWS V14.01,2013-08-03 07:43:00,
2013-08-03 03:48:00,65.6,62.9,29.90,SSW,203,0.0,1.0,91,0.00,,CLR,0.00,0.00,VWS V14.01,2013-08-03 07:48:00,
2013-08-03 03:54:00,65.6,62.9,29.90,SSW,203,0.0,1.0,91,0.00,,CLR,0.00,0.00,VWS V14.01,2013-08-03 07:54:00,
2013-08-03 03:59:00,65.6,62.9,29.90,SSW,203,0.0,0.0,91,0.00,,CLR,0.00,0.00,VWS V14.01,2013-08-03 07:59:00,
2013-08-03 04:04:00,65.6,62.9,29.90,SSW,203,0.0,0.0,91,0.00,,CLR,0.00,0.00,VWS V14.01,2013-08-03 08:04:00,
2013-08-03 04:09:00,65.6,62.9,29.90,SSW,203,0.0,0.0,91,0.00,,CLR,0.00,0.00,VWS V14.01,2013-08-03 08:09:00,
2013-08-03 04:14:00,65.6,62.9,29.90,SSW,203,0.0,0.0,91,0.00,,CLR,0.00,0.00,VWS V14.01,2013-08-03 08:14:00,
2013-08-03 04:19:00,65.5,63.1,29.90,SSW,203,0.0,0.0,92,0.00,,CLR,0.00,0.00,VWS V14.01,2013-08-03 08:19:00,
2013-08-03 04:24:00,65.5,63.1,29.90,SSW,203,0.0,0.0,92,0.00,,CLR,0.00,0.00,VWS V14.01,2013-08-03 08:24:00,
2013-08-03 04:29:00,65.5,63.1,29.90,SSW,203,0.0,0.0,92,0.00,,CLR,0.00,0.00,VWS V14.01,2013-08-03 08:29:00,
2013-08-03 04:34:00,65.4,63.0,29.90,SSW,203,0.0,0.0,92,0.00,,CLR,0.00,0.00,VWS V14.01,2013-08-03 08:34:00,
2013-08-03 04:39:00,65.4,63.0,29.90,SSW,203,0.0,0.0,92,0.00,,CLR,0.00,0.00,VWS V14.01,2013-08-03 08:39:00,
2013-08-03 04:44:00,65.5,63.1,29.90,SSW,203,0.0,0.0,92,0.00,,CLR,0.00,0.00,VWS V14.01,2013-08-03 08:44:00,
2013-08-03 04:50:00,65.4,63.0,29.90,SSW,202,0.0,2.0,92,0.00,,CLR,0.00,0.00,VWS V14.01,2013-08-03 08:50:00,
2013-08-03 04:55:00,65.4,62.7,29.91,SSW,202,0.0,1.0,91,0.00,,CLR,0.00,0.00,VWS V14.01,2013-08-03 08:55:00,
2013-08-03 05:00:00,65.4,62.7,29.91,SSW,202,0.0,1.0,91,0.00,,CLR,0.00,0.00,VWS V14.01,2013-08-03 09:00:00,
2013-08-03 05:04:00,65.6,62.9,29.91,SSW,203,0.0,0.0,91,0.00,,CLR,0.00,0.00,VWS V14.01,2013-08-03 09:04:00,
2013-08-03 05:09:00,65.7,62.7,29.91,SSW,203,0.0,0.0,90,0.00,,CLR,0.00,0.00,VWS V14.01,2013-08-03 09:09:00,
2013-08-03 05:15:00,65.9,62.9,29.90,SSW,203,0.0,0.0,90,0.00,,CLR,0.00,0.00,VWS V14.01,2013-08-03 09:15:00,
2013-08-03 05:20:00,66.0,63.0,29.91,SSW,203,0.0,1.0,90,0.00,,CLR,0.00,0.00,VWS V14.01,2013-08-03 09:20:00,
2013-08-03 05:25:00,66.1,63.1,29.91,SSW,203,0.0,1.0,90,0.00,,CLR,0.00,0.00,VWS V14.01,2013-08-03 09:25:00,
2013-08-03 05:30:00,66.1,63.1,29.91,SSW,203,0.0,1.0,90,0.00,,CLR,0.00,0.00,VWS V14.01,2013-08-03 09:30:00,
2013-08-03 05:35:00,66.2,62.9,29.91,SSW,203,0.0,1.0,89,0.00,,CLR,0.00,0.00,VWS V14.01,2013-08-03 09:35:00,
2013-08-03 05:40:00,66.2,62.9,29.90,SSW,203,0.0,0.0,89,0.00,,CLR,0.00,0.00,VWS V14.01,2013-08-03 09:40:00,
2013-08-03 05:45:00,66.3,63.0,29.90,SSW,203,0.0,0.0,89,0.00,,CLR,0.00,0.00,VWS V14.01,2013-08-03 09:45:00,
2013-08-03 05:50:00,66.3,63.0,29.90,SSW,203,0.0,0.0,89,0.00,,CLR,0.00,0.00,VWS V14.01,2013-08-03 09:50:00,
2013-08-03 05:55:00,66.4,63.1,29.90,SSW,203,0.0,1.0,89,0.00,,CLR,0.00,0.00,VWS V14.01,2013-08-03 09:55:00,
2013-08-03 06:01:00,66.5,63.2,29.90,SSW,203,0.0,0.0,89,0.00,,CLR,0.00,0.00,VWS V14.01,2013-08-03 10:01:00,
2013-08-03 06:06:00,66.5,63.2,29.90,SSW,203,0.0,0.0,89,0.00,,CLR,0.00,0.00,VWS V14.01,2013-08-03 10:06:00,
2013-08-03 06:11:00,66.5,63.2,29.91,SSW,203,0.0,1.0,89,0.00,,CLR,0.00,0.00,VWS V14.01,2013-08-03 10:11:00,
2013-08-03 06:16:00,66.4,63.1,29.91,SSW,203,0.0,1.0,89,0.00,,CLR,0.00,0.00,VWS V14.01,2013-08-03 10:16:00,
2013-08-03 06:21:00,66.3,63.0,29.91,SSW,203,0.0,0.0,89,0.00,,CLR,0.00,0.00,VWS V14.01,2013-08-03 10:21:00,
2013-08-03 06:26:00,66.3,63.0,29.91,SSW,203,0.0,0.0,89,0.00,,CLR,0.00,0.00,VWS V14.01,2013-08-03 10:26:00,
2013-08-03 06:31:00,66.3,63.0,29.91,SSW,203,0.0,0.0,89,0.00,,CLR,0.00,0.00,VWS V14.01,2013-08-03 10:31:00,
2013-08-03 06:36:00,66.3,63.3,29.92,SSW,203,0.0,0.0,90,0.00,,CLR,0.00,7.00,VWS V14.01,2013-08-03 10:36:00,
2013-08-03 06:41:00,66.3,63.3,29.91,SSW,203,0.0,0.0,90,0.00,,CLR,0.00,9.00,VWS V14.01,2013-08-03 10:41:00,
2013-08-03 06:47:00,66.3,63.3,29.91,ENE,77,0.0,0.0,90,0.00,,CLR,0.00,9.00,VWS V14.01,2013-08-03 10:47:00,
2013-08-03 06:52:00,66.3,63.3,29.92,ENE,77,0.0,0.0,90,0.00,,CLR,0.00,11.00,VWS V14.01,2013-08-03 10:52:00,
2013-08-03 06:57:00,66.3,63.3,29.91,WSW,248,0.0,0.0,90,0.00,,CLR,0.00,14.00,VWS V14.01,2013-08-03 10:57:00,
2013-08-03 07:02:00,66.4,63.4,29.92,WSW,248,0.0,0.0,90,0.00,,CLR,0.00,12.00,VWS V14.01,2013-08-03 11:02:00,
2013-08-03 07:07:00,66.4,63.4,29.92,WSW,248,0.0,0.0,90,0.00,,CLR,0.00,18.00,VWS V14.01,2013-08-03 11:07:00,
2013-08-03 07:12:00,66.4,63.4,29.92,WNW,298,0.0,0.0,90,0.00,,CLR,0.00,18.00,VWS V14.01,2013-08-03 11:12:00,
2013-08-03 07:17:00,66.5,63.5,29.92,WNW,298,0.0,0.0,90,0.00,,CLR,0.00,16.00,VWS V14.01,2013-08-03 11:17:00,
2013-08-03 07:22:00,66.5,63.5,29.92,WNW,298,0.0,0.0,90,0.00,,CLR,0.00,12.00,VWS V14.01,2013-08-03 11:22:00,
2013-08-03 07:27:00,66.6,63.6,29.92,WNW,298,0.0,1.0,90,0.00,,CLR,0.00,11.00,VWS V14.01,2013-08-03 11:27:00,
2013-08-03 07:32:00,66.7,63.7,29.92,WNW,298,0.0,0.0,90,0.00,,CLR,0.00,12.00,VWS V14.01,2013-08-03 11:32:00,
2013-08-03 07:37:00,66.7,64.0,29.92,WNW,298,0.0,0.0,91,0.00,,CLR,0.00,19.00,VWS V14.01,2013-08-03 11:37:00,
2013-08-03 07:42:00,66.8,64.1,29.92,WNW,298,0.0,0.0,91,0.00,,CLR,0.00,32.00,VWS V14.01,2013-08-03 11:42:00,
2013-08-03 07:48:00,66.8,64.1,29.92,WNW,298,0.0,1.0,91,0.00,,CLR,0.00,33.00,VWS V14.01,2013-08-03 11:48:00,
2013-08-03 07:53:00,66.9,64.2,29.92,WNW,298,0.0,0.0,91,0.00,,CLR,0.00,26.00,VWS V14.01,2013-08-03 11:53:00,
2013-08-03 07:58:00,67.0,64.3,29.91,WNW,298,0.0,1.0,91,0.00,,CLR,0.00,33.00,VWS V14.01,2013-08-03 11:58:00,
2013-08-03 08:03:00,67.0,64.3,29.91,WNW,298,0.0,0.0,91,0.00,,CLR,0.00,30.00,VWS V14.01,2013-08-03 12:03:00,
2013-08-03 08:08:00,67.0,64.3,29.91,WNW,298,0.0,0.0,91,0.00,,CLR,0.00,28.00,VWS V14.01,2013-08-03 12:08:00,
2013-08-03 08:13:00,67.0,64.3,29.92,WNW,296,0.0,0.0,91,0.00,,CLR,0.00,32.00,VWS V14.01,2013-08-03 12:13:00,
2013-08-03 08:18:00,66.9,64.2,29.92,WNW,297,0.0,0.0,91,0.00,,CLR,0.00,49.00,VWS V14.01,2013-08-03 12:18:00,
2013-08-03 08:23:00,66.9,64.2,29.91,WNW,296,0.0,0.0,91,0.00,,CLR,0.00,44.00,VWS V14.01,2013-08-03 12:23:00,
2013-08-03 08:28:00,66.9,64.2,29.91,WNW,296,0.0,0.0,91,0.00,,CLR,0.00,69.00,VWS V14.01,2013-08-03 12:28:00,
2013-08-03 08:33:00,67.0,64.6,29.91,WNW,296,0.0,0.0,92,0.00,,CLR,0.00,86.00,VWS V14.01,2013-08-03 12:33:00,
2013-08-03 08:38:00,67.2,64.8,29.92,WNW,297,0.0,0.0,92,0.00,,CLR,0.00,84.00,VWS V14.01,2013-08-03 12:38:00,
2013-08-03 08:43:00,67.2,64.8,29.92,WSW,240,0.0,2.0,92,0.00,,CLR,0.00,53.00,VWS V14.01,2013-08-03 12:43:00,
2013-08-03 08:48:00,67.2,64.8,29.92,WSW,238,0.0,2.0,92,0.00,,CLR,0.00,53.00,VWS V14.01,2013-08-03 12:48:00,
2013-08-03 08:53:00,67.2,64.8,29.92,WSW,240,0.0,1.0,92,0.00,,CLR,0.00,46.00,VWS V14.01,2013-08-03 12:53:00,
2013-08-03 08:58:00,67.1,64.7,29.92,SW,234,0.0,1.0,92,0.00,,CLR,0.00,47.00,VWS V14.01,2013-08-03 12:58:00,
2013-08-03 09:03:00,67.1,64.7,29.92,SW,235,0.0,0.0,92,0.00,,CLR,0.00,62.00,VWS V14.01,2013-08-03 13:03:00,
2013-08-03 09:08:00,67.2,64.8,29.92,SW,235,0.0,0.0,92,0.00,,CLR,0.00,58.00,VWS V14.01,2013-08-03 13:08:00,
2013-08-03 09:14:00,67.2,64.8,29.92,SW,234,0.0,0.0,92,0.00,,CLR,0.00,47.00,VWS V14.01,2013-08-03 13:14:00,
2013-08-03 09:19:00,67.2,65.1,29.93,SW,235,0.0,0.0,93,0.00,,CLR,0.00,53.00,VWS V14.01,2013-08-03 13:19:00,
2013-08-03 09:24:00,67.3,65.2,29.93,SW,234,0.0,0.0,93,0.00,,CLR,0.00,65.00,VWS V14.01,2013-08-03 13:24:00,
2013-08-03 09:29:00,67.4,65.3,29.93,SW,235,0.0,1.0,93,0.00,,CLR,0.00,67.00,VWS V14.01,2013-08-03 13:29:00,
2013-08-03 09:34:00,67.4,65.3,29.93,SW,235,0.0,1.0,93,0.00,,CLR,0.00,76.00,VWS V14.01,2013-08-03 13:34:00,
2013-08-03 09:38:00,67.5,65.4,29.93,SW,235,0.0,0.0,93,0.00,,CLR,0.00,90.00,VWS V14.01,2013-08-03 13:38:00,
2013-08-03 09:44:00,67.6,65.5,29.93,SW,234,0.0,0.0,93,0.00,,CLR,0.00,123.00,VWS V14.01,2013-08-03 13:44:00,
2013-08-03 09:49:00,67.7,65.6,29.92,SW,235,1.0,1.0,93,0.00,,CLR,0.00,142.00,VWS V14.01,2013-08-03 13:49:00,
2013-08-03 09:54:00,67.9,65.8,29.93,SW,234,0.0,1.0,93,0.00,,CLR,0.00,118.00,VWS V14.01,2013-08-03 13:54:00,
2013-08-03 09:59:00,68.0,65.9,29.93,SW,232,0.0,0.0,93,0.00,,CLR,0.00,130.00,VWS V14.01,2013-08-03 13:59:00,
2013-08-03 10:04:00,68.1,66.0,29.93,SW,230,0.0,0.0,93,0.00,,CLR,0.00,116.00,VWS V14.01,2013-08-03 14:04:00,
2013-08-03 10:09:00,68.3,66.2,29.93,SW,231,0.0,0.0,93,0.00,,CLR,0.00,139.00,VWS V14.01,2013-08-03 14:09:00,
2013-08-03 10:14:00,68.5,66.4,29.93,SSW,213,0.0,0.0,93,0.00,,CLR,0.00,165.00,VWS V14.01,2013-08-03 14:14:00,
2013-08-03 10:19:00,68.6,66.5,29.93,SSW,211,0.0,0.0,93,0.00,,CLR,0.00,151.00,VWS V14.01,2013-08-03 14:19:00,
2013-08-03 10:24:00,68.8,66.7,29.93,SSW,206,0.0,0.0,93,0.00,,CLR,0.00,130.00,VWS V14.01,2013-08-03 14:24:00,
2013-08-03 10:29:00,69.0,66.9,29.93,SSW,205,0.0,0.0,93,0.00,,CLR,0.00,153.00,VWS V14.01,2013-08-03 14:29:00,
2013-08-03 10:34:00,69.2,67.1,29.93,SSW,205,0.0,0.0,93,0.00,,CLR,0.00,218.00,VWS V14.01,2013-08-03 14:34:00,
2013-08-03 10:40:00,69.6,67.5,29.93,SSW,205,0.0,0.0,93,0.00,,CLR,0.00,232.00,VWS V14.01,2013-08-03 14:40:00,
2013-08-03 10:45:00,70.0,67.9,29.93,SSW,205,0.0,0.0,93,0.00,,CLR,0.00,192.00,VWS V14.01,2013-08-03 14:45:00,
2013-08-03 10:50:00,70.3,67.9,29.92,SSW,205,0.0,1.0,92,0.00,,CLR,0.00,158.00,VWS V14.01,2013-08-03 14:50:00,
2013-08-03 10:55:00,70.4,68.0,29.92,South,173,1.0,5.0,92,0.00,,CLR,0.00,118.00,VWS V14.01,2013-08-03 14:55:00,
2013-08-03 11:00:00,70.3,67.6,29.92,South,188,0.0,1.0,91,0.00,,CLR,0.00,121.00,VWS V14.01,2013-08-03 15:00:00,
2013-08-03 11:05:00,70.3,67.6,29.92,SSW,198,0.0,2.0,91,0.00,,CLR,0.00,81.00,VWS V14.01,2013-08-03 15:05:00,
2013-08-03 11:10:00,70.2,67.4,29.92,SW,215,0.0,4.0,91,0.00,,CLR,0.00,67.00,VWS V14.01,2013-08-03 15:10:00,
2013-08-03 11:15:00,70.2,67.4,29.93,SW,215,0.0,1.0,91,0.00,,CLR,0.00,69.00,VWS V14.01,2013-08-03 15:15:00,
2013-08-03 11:20:00,70.2,67.4,29.92,SSW,209,0.0,1.0,91,0.00,,CLR,0.00,97.00,VWS V14.01,2013-08-03 15:20:00,
2013-08-03 11:25:00,70.2,67.4,29.93,SSW,207,0.0,1.0,91,0.00,,CLR,0.00,132.00,VWS V14.01,2013-08-03 15:25:00,
2013-08-03 11:30:00,70.3,67.9,29.92,SSW,207,0.0,0.0,92,0.00,,CLR,0.00,155.00,VWS V14.01,2013-08-03 15:30:00,
2013-08-03 11:35:00,70.4,68.0,29.93,SSW,207,0.0,1.0,92,0.00,,CLR,0.00,153.00,VWS V14.01,2013-08-03 15:35:00,
2013-08-03 11:40:00,70.5,68.1,29.93,SSW,208,0.0,3.0,92,0.00,,CLR,0.00,149.00,VWS V14.01,2013-08-03 15:40:00,
2013-08-03 11:45:00,70.5,67.8,29.93,SSW,202,4.0,6.0,91,0.00,,CLR,0.00,116.00,VWS V14.01,2013-08-03 15:45:00,
2013-08-03 11:50:00,70.4,67.7,29.93,SSW,205,0.0,3.0,91,0.00,,CLR,0.00,98.00,VWS V14.01,2013-08-03 15:50:00,
2013-08-03 11:55:00,70.3,67.6,29.94,SSW,192,1.0,5.0,91,0.01,,CLR,0.01,72.00,VWS V14.01,2013-08-03 15:55:00,
2013-08-03 12:00:00,70.1,67.4,29.94,SSW,202,0.0,1.0,91,0.02,,CLR,0.02,86.00,VWS V14.01,2013-08-03 16:00:00,
2013-08-03 12:06:00,69.9,67.2,29.94,South,184,0.0,4.0,91,0.02,,CLR,0.02,118.00,VWS V14.01,2013-08-03 16:06:00,
2013-08-03 12:11:00,69.6,66.9,29.93,SSW,206,2.0,3.0,91,0.02,,CLR,0.02,109.00,VWS V14.01,2013-08-03 16:11:00,
2013-08-03 12:16:00,69.4,66.7,29.93,SSW,211,0.0,6.0,91,0.03,,CLR,0.03,127.00,VWS V14.01,2013-08-03 16:16:00,
2013-08-03 12:21:00,69.2,66.8,29.92,SE,146,0.0,1.0,92,0.03,,CLR,0.03,207.00,VWS V14.01,2013-08-03 16:21:00,
2013-08-03 12:27:00,69.3,67.2,29.92,SSW,200,0.0,1.0,93,0.03,,CLR,0.03,193.00,VWS V14.01,2013-08-03 16:27:00,
2013-08-03 12:31:00,69.4,67.3,29.92,SW,215,5.0,5.0,93,0.03,,CLR,0.03,209.00,VWS V14.01,2013-08-03 16:31:00,
2013-08-03 12:37:00,69.3,67.2,29.92,SW,223,0.0,3.0,93,0.03,,CLR,0.03,271.00,VWS V14.01,2013-08-03 16:37:00,
2013-08-03 12:42:00,69.4,67.3,29.93,SSW,197,0.0,5.0,93,0.03,,CLR,0.03,438.00,VWS V14.01,2013-08-03 16:42:00,
2013-08-03 12:47:00,69.6,67.5,29.92,SSE,161,0.0,3.0,93,0.03,,CLR,0.03,364.00,VWS V14.01,2013-08-03 16:47:00,
2013-08-03 12:52:00,69.9,67.8,29.92,SSW,192,0.0,3.0,93,0.03,,CLR,0.03,234.00,VWS V14.01,2013-08-03 16:52:00,
2013-08-03 12:57:00,69.9,67.5,29.92,South,191,0.0,1.0,92,0.02,,CLR,0.03,163.00,VWS V14.01,2013-08-03 16:57:00,
2013-08-03 13:03:00,69.8,67.4,29.92,SSW,203,0.0,3.0,92,0.01,,CLR,0.03,171.00,VWS V14.01,2013-08-03 17:03:00,
2013-08-03 13:08:00,69.8,67.4,29.92,SSW,209,0.0,4.0,92,0.01,,CLR,0.03,179.00,VWS V14.01,2013-08-03 17:08:00,
2013-08-03 13:13:00,69.9,67.8,29.92,SSW,209,0.0,1.0,93,0.01,,CLR,0.03,258.00,VWS V14.01,2013-08-03 17:13:00,
2013-08-03 13:18:00,70.2,68.1,29.92,SSW,209,0.0,1.0,93,0.00,,CLR,0.03,262.00,VWS V14.01,2013-08-03 17:18:00,
2013-08-03 13:23:00,70.6,68.5,29.92,SSW,209,0.0,1.0,93,0.00,,CLR,0.03,381.00,VWS V14.01,2013-08-03 17:23:00,
2013-08-03 13:28:00,70.7,68.3,29.92,SSW,198,1.0,5.0,92,0.00,,CLR,0.03,336.00,VWS V14.01,2013-08-03 17:28:00,
2013-08-03 13:33:00,70.9,68.5,29.92,SSW,206,0.0,5.0,92,0.00,,CLR,0.03,221.00,VWS V14.01,2013-08-03 17:33:00,
2013-08-03 13:38:00,70.8,68.1,29.92,SSW,200,0.0,6.0,91,0.00,,CLR,0.03,253.00,VWS V14.01,2013-08-03 17:38:00,
2013-08-03 13:43:00,71.0,68.6,29.92,SSW,204,4.0,8.0,92,0.00,,CLR,0.03,388.00,VWS V14.01,2013-08-03 17:43:00,
2013-08-03 13:48:00,71.1,68.3,29.92,SSW,203,5.0,6.0,91,0.00,,CLR,0.03,218.00,VWS V14.01,2013-08-03 17:48:00,
2013-08-03 13:53:00,70.8,67.7,29.92,South,188,0.0,7.0,90,0.00,,CLR,0.03,139.00,VWS V14.01,2013-08-03 17:53:00,
2013-08-03 13:58:00,70.8,68.1,29.92,SSW,207,0.0,5.0,91,0.00,,CLR,0.03,118.00,VWS V14.01,2013-08-03 17:58:00,
2013-08-03 14:03:00,70.7,67.9,29.92,SSW,203,0.0,4.0,91,0.00,,CLR,0.03,70.00,VWS V14.01,2013-08-03 18:03:00,
2013-08-03 14:08:00,70.6,67.8,29.92,South,191,0.0,2.0,91,0.00,,CLR,0.03,63.00,VWS V14.01,2013-08-03 18:08:00,
2013-08-03 14:13:00,70.5,67.8,29.92,SSW,200,0.0,2.0,91,0.00,,CLR,0.03,60.00,VWS V14.01,2013-08-03 18:13:00,
2013-08-03 14:18:00,70.4,67.7,29.92,SSW,199,0.0,0.0,91,0.00,,CLR,0.03,69.00,VWS V14.01,2013-08-03 18:18:00,
2013-08-03 14:23:00,70.3,67.6,29.92,SSW,200,0.0,1.0,91,0.00,,CLR,0.03,69.00,VWS V14.01,2013-08-03 18:23:00,
2013-08-03 14:28:00,70.3,67.6,29.92,SSW,209,0.0,3.0,91,0.00,,CLR,0.03,67.00,VWS V14.01,2013-08-03 18:28:00,
2013-08-03 14:34:00,70.3,67.6,29.92,SSW,209,0.0,1.0,91,0.00,,CLR,0.03,44.00,VWS V14.01,2013-08-03 18:34:00,
2013-08-03 14:39:00,70.2,67.4,29.92,SSW,209,0.0,1.0,91,0.00,,CLR,0.03,35.00,VWS V14.01,2013-08-03 18:39:00,
2013-08-03 14:44:00,70.2,67.8,29.92,SSW,209,0.0,0.0,92,0.00,,CLR,0.03,33.00,VWS V14.01,2013-08-03 18:44:00,
2013-08-03 14:49:00,70.2,67.8,29.91,SSW,209,0.0,0.0,92,0.01,,CLR,0.04,70.00,VWS V14.01,2013-08-03 18:49:00,
2013-08-03 14:54:00,70.2,68.1,29.91,SSW,208,0.0,0.0,93,0.02,,CLR,0.05,102.00,VWS V14.01,2013-08-03 18:54:00,
2013-08-03 14:59:00,70.2,68.1,29.91,SSW,208,0.0,0.0,93,0.02,,CLR,0.05,116.00,VWS V14.01,2013-08-03 18:59:00,
2013-08-03 15:04:00,70.3,68.2,29.92,SSW,206,0.0,0.0,93,0.02,,CLR,0.05,79.00,VWS V14.01,2013-08-03 19:04:00,
2013-08-03 15:09:00,70.3,68.5,29.92,SSW,200,1.0,1.0,94,0.02,,CLR,0.05,51.00,VWS V14.01,2013-08-03 19:09:00,
2013-08-03 15:14:00,70.1,68.3,29.92,NW,321,6.0,7.0,94,0.02,,CLR,0.05,25.00,VWS V14.01,2013-08-03 19:14:00,
2013-08-03 15:19:00,69.9,68.1,29.92,NW,321,0.0,6.0,94,0.03,,CLR,0.06,12.00,VWS V14.01,2013-08-03 19:19:00,
2013-08-03 15:24:00,69.6,67.8,29.92,North,360,0.0,0.0,94,0.03,,CLR,0.06,30.00,VWS V14.01,2013-08-03 19:24:00,
2013-08-03 15:29:00,69.5,67.7,29.92,North,5,0.0,0.0,94,0.04,,CLR,0.07,30.00,VWS V14.01,2013-08-03 19:29:00,
2013-08-03 15:34:00,69.5,68.0,29.92,North,360,1.0,1.0,95,0.06,,CLR,0.09,26.00,VWS V14.01,2013-08-03 19:34:00,
2013-08-03 15:39:00,69.3,67.8,29.91,North,360,0.0,0.0,95,0.07,,CLR,0.10,58.00,VWS V14.01,2013-08-03 19:39:00,
2013-08-03 15:44:00,69.3,67.8,29.92,North,5,0.0,0.0,95,0.08,,CLR,0.11,33.00,VWS V14.01,2013-08-03 19:44:00,
2013-08-03 15:49:00,69.2,67.7,29.92,North,9,0.0,1.0,95,0.09,,CLR,0.13,25.00,VWS V14.01,2013-08-03 19:49:00,
2013-08-03 15:55:00,69.0,67.5,29.92,NNW,327,0.0,2.0,95,0.13,,CLR,0.18,21.00,VWS V14.01,2013-08-03 19:55:00,
2013-08-03 15:59:00,68.4,66.6,29.92,NNW,336,0.0,0.0,94,0.15,,CLR,0.20,28.00,VWS V14.01,2013-08-03 19:59:00,
2013-08-03 16:05:00,68.2,66.7,29.92,NNW,336,0.0,0.0,95,0.16,,CLR,0.21,84.00,VWS V14.01,2013-08-03 20:05:00,
2013-08-03 16:10:00,68.1,66.6,29.92,NNW,336,0.0,0.0,95,0.16,,CLR,0.21,60.00,VWS V14.01,2013-08-03 20:10:00,
2013-08-03 16:15:00,68.1,66.6,29.91,NNW,336,0.0,0.0,95,0.16,,CLR,0.21,56.00,VWS V14.01,2013-08-03 20:15:00,
2013-08-03 16:20:00,68.1,66.6,29.92,NNW,336,0.0,0.0,95,0.15,,CLR,0.21,88.00,VWS V14.01,2013-08-03 20:20:00,
2013-08-03 16:25:00,68.1,66.6,29.91,NNW,336,0.0,0.0,95,0.16,,CLR,0.22,120.00,VWS V14.01,2013-08-03 20:25:00,
2013-08-03 16:30:00,68.1,66.6,29.90,NNW,336,0.0,0.0,95,0.15,,CLR,0.22,90.00,VWS V14.01,2013-08-03 20:30:00,
2013-08-03 16:35:00,68.2,66.7,29.90,NNW,336,0.0,0.0,95,0.13,,CLR,0.22,155.00,VWS V14.01,2013-08-03 20:35:00,
2013-08-03 16:40:00,68.6,67.4,29.90,NNW,336,0.0,0.0,96,0.12,,CLR,0.22,241.00,VWS V14.01,2013-08-03 20:40:00,
2013-08-03 16:45:00,69.0,67.8,29.90,NNW,336,0.0,0.0,96,0.11,,CLR,0.22,279.00,VWS V14.01,2013-08-03 20:45:00,
2013-08-03 16:50:00,69.7,68.5,29.90,NW,309,0.0,1.0,96,0.10,,CLR,0.22,330.00,VWS V14.01,2013-08-03 20:50:00,
2013-08-03 16:56:00,70.0,68.5,29.90,WSW,251,2.0,2.0,95,0.05,,CLR,0.22,272.00,VWS V14.01,2013-08-03 20:56:00,
2013-08-03 17:01:00,70.1,68.6,29.90,South,180,0.0,3.0,95,0.02,,CLR,0.22,195.00,VWS V14.01,2013-08-03 21:01:00,
2013-08-03 17:06:00,70.2,68.7,29.90,SSW,198,0.0,3.0,95,0.01,,CLR,0.22,141.00,VWS V14.01,2013-08-03 21:06:00,
2013-08-03 17:11:00,70.0,68.2,29.90,SSW,205,0.0,2.0,94,0.01,,CLR,0.22,102.00,VWS V14.01,2013-08-03 21:11:00,
2013-08-03 17:16:00,69.9,68.1,29.90,South,176,0.0,1.0,94,0.01,,CLR,0.22,74.00,VWS V14.01,2013-08-03 21:16:00,
2013-08-03 17:21:00,69.9,68.1,29.90,South,176,1.0,1.0,94,0.01,,CLR,0.22,88.00,VWS V14.01,2013-08-03 21:21:00,
2013-08-03 17:26:00,69.8,68.0,29.90,South,178,0.0,2.0,94,0.00,,CLR,0.22,100.00,VWS V14.01,2013-08-03 21:26:00,
2013-08-03 17:32:00,69.9,68.4,29.90,South,181,0.0,2.0,95,0.00,,CLR,0.22,100.00,VWS V14.01,2013-08-03 21:32:00,
2013-08-03 17:37:00,69.9,68.4,29.89,SSW,213,0.0,1.0,95,0.00,,CLR,0.22,130.00,VWS V14.01,2013-08-03 21:37:00,
2013-08-03 17:42:00,70.1,68.6,29.89,SSW,206,0.0,2.0,95,0.00,,CLR,0.22,213.00,VWS V14.01,2013-08-03 21:42:00,
2013-08-03 17:47:00,70.2,69.0,29.89,SSW,207,0.0,3.0,96,0.00,,CLR,0.22,204.00,VWS V14.01,2013-08-03 21:47:00,
2013-08-03 17:52:00,70.3,69.1,29.89,SSW,200,0.0,1.0,96,0.00,,CLR,0.22,142.00,VWS V14.01,2013-08-03 21:52:00,
2013-08-03 17:57:00,70.3,69.1,29.89,SSW,199,0.0,2.0,96,0.00,,CLR,0.22,72.00,VWS V14.01,2013-08-03 21:57:00,
2013-08-03 18:02:00,70.3,68.8,29.89,South,186,2.0,4.0,95,0.00,,CLR,0.22,83.00,VWS V14.01,2013-08-03 22:02:00,
2013-08-03 18:07:00,70.3,69.1,29.89,South,176,1.0,4.0,96,0.00,,CLR,0.22,139.00,VWS V14.01,2013-08-03 22:07:00,
2013-08-03 18:12:00,70.3,69.1,29.89,SW,215,0.0,4.0,96,0.00,,CLR,0.22,135.00,VWS V14.01,2013-08-03 22:12:00,
2013-08-03 18:18:00,70.3,69.1,29.89,SW,215,1.0,3.0,96,0.00,,CLR,0.22,74.00,VWS V14.01,2013-08-03 22:18:00,
2013-08-03 18:23:00,70.2,69.0,29.89,SSW,206,0.0,1.0,96,0.00,,CLR,0.22,65.00,VWS V14.01,2013-08-03 22:23:00,
2013-08-03 18:28:00,70.2,68.7,29.89,South,169,1.0,2.0,95,0.00,,CLR,0.22,63.00,VWS V14.01,2013-08-03 22:28:00,
2013-08-03 18:33:00,70.2,69.0,29.89,SSE,164,0.0,1.0,96,0.00,,CLR,0.22,47.00,VWS V14.01,2013-08-03 22:33:00,
2013-08-03 18:38:00,70.3,69.1,29.89,SSE,164,0.0,0.0,96,0.00,,CLR,0.22,53.00,VWS V14.01,2013-08-03 22:38:00,
2013-08-03 18:43:00,70.3,69.1,29.89,SSE,164,0.0,1.0,96,0.00,,CLR,0.22,26.00,VWS V14.01,2013-08-03 22:43:00,
2013-08-03 18:48:00,70.3,69.1,29.89,South,182,0.0,3.0,96,0.00,,CLR,0.22,18.00,VWS V14.01,2013-08-03 22:48:00,
2013-08-03 18:53:00,70.2,69.0,29.89,South,182,0.0,2.0,96,0.00,,CLR,0.22,33.00,VWS V14.01,2013-08-03 22:53:00,
2013-08-03 18:58:00,70.2,69.0,29.89,South,182,0.0,2.0,96,0.00,,CLR,0.22,23.00,VWS V14.01,2013-08-03 22:58:00,
2013-08-03 19:03:00,70.2,69.0,29.89,South,190,0.0,3.0,96,0.00,,CLR,0.22,19.00,VWS V14.01,2013-08-03 23:03:00,
2013-08-03 19:08:00,70.1,68.9,29.89,South,190,0.0,1.0,96,0.00,,CLR,0.22,28.00,VWS V14.01,2013-08-03 23:08:00,
2013-08-03 19:13:00,70.1,68.9,29.90,South,190,0.0,1.0,96,0.00,,CLR,0.22,37.00,VWS V14.01,2013-08-03 23:13:00,
2013-08-03 19:18:00,70.1,68.9,29.90,South,190,0.0,0.0,96,0.01,,CLR,0.23,33.00,VWS V14.01,2013-08-03 23:18:00,
2013-08-03 19:23:00,70.0,68.8,29.90,SSW,193,1.0,2.0,96,0.01,,CLR,0.23,19.00,VWS V14.01,2013-08-03 23:23:00,
2013-08-03 19:28:00,69.8,68.6,29.90,SSW,209,5.0,6.0,96,0.01,,CLR,0.23,40.00,VWS V14.01,2013-08-03 23:28:00,
2013-08-03 19:34:00,69.6,68.4,29.90,South,187,3.0,5.0,96,0.01,,CLR,0.23,47.00,VWS V14.01,2013-08-03 23:34:00,
2013-08-03 19:39:00,69.4,68.2,29.90,SSW,203,0.0,5.0,96,0.02,,CLR,0.24,23.00,VWS V14.01,2013-08-03 23:39:00,
2013-08-03 19:43:00,69.1,67.9,29.90,SSW,205,2.0,7.0,96,0.02,,CLR,0.24,16.00,VWS V14.01,2013-08-03 23:43:00,
2013-08-03 19:49:00,68.8,67.3,29.90,SSW,205,3.0,8.0,95,0.02,,CLR,0.24,26.00,VWS V14.01,2013-08-03 23:49:00,
2013-08-03 19:54:00,68.6,67.1,29.90,SSW,211,0.0,5.0,95,0.02,,CLR,0.24,25.00,VWS V14.01,2013-08-03 23:54:00,
2013-08-03 19:59:00,68.5,67.3,29.90,SSW,207,0.0,5.0,96,0.02,,CLR,0.24,12.00,VWS V14.01,2013-08-03 23:59:00,
2013-08-03 20:03:00,68.3,67.1,29.90,SSW,207,0.0,1.0,96,0.02,,CLR,0.24,11.00,VWS V14.01,2013-08-04 00:03:00,
2013-08-03 20:09:00,68.2,67.0,29.90,SSW,205,0.0,3.0,96,0.02,,CLR,0.24,9.00,VWS V14.01,2013-08-04 00:09:00,
2013-08-03 20:13:00,67.9,66.4,29.90,SSW,213,0.0,6.0,95,0.02,,CLR,0.24,5.00,VWS V14.01,2013-08-04 00:13:00,
2013-08-03 20:19:00,67.8,66.6,29.91,SW,214,0.0,1.0,96,0.02,,CLR,0.24,0.00,VWS V14.01,2013-08-04 00:19:00,
2013-08-03 20:23:00,67.7,66.5,29.91,SW,215,0.0,0.0,96,0.01,,CLR,0.24,0.00,VWS V14.01,2013-08-04 00:23:00,
2013-08-03 20:29:00,67.6,66.4,29.91,SW,215,0.0,1.0,96,0.01,,CLR,0.24,0.00,VWS V14.01,2013-08-04 00:29:00,
2013-08-03 20:34:00,67.5,66.3,29.91,SW,215,0.0,0.0,96,0.01,,CLR,0.24,0.00,VWS V14.01,2013-08-04 00:34:00,
2013-08-03 20:39:00,67.4,66.2,29.91,SW,214,0.0,0.0,96,0.01,,CLR,0.24,0.00,VWS V14.01,2013-08-04 00:39:00,
2013-08-03 20:44:00,67.3,66.1,29.91,SW,215,0.0,0.0,96,0.00,,CLR,0.24,0.00,VWS V14.01,2013-08-04 00:44:00,
2013-08-03 20:49:00,67.1,65.9,29.91,SW,215,0.0,1.0,96,0.00,,CLR,0.24,0.00,VWS V14.01,2013-08-04 00:49:00,
2013-08-03 20:53:00,67.1,65.9,29.91,SW,215,0.0,1.0,96,0.00,,CLR,0.24,0.00,VWS V14.01,2013-08-04 00:53:00,
2013-08-03 20:59:00,67.0,65.8,29.91,SW,215,0.0,2.0,96,0.00,,CLR,0.24,0.00,VWS V14.01,2013-08-04 00:59:00,
2013-08-03 21:04:00,66.8,65.6,29.91,SW,215,0.0,1.0,96,0.00,,CLR,0.24,0.00,VWS V14.01,2013-08-04 01:04:00,
2013-08-03 21:09:00,66.7,65.5,29.91,SW,215,0.0,0.0,96,0.00,,CLR,0.24,0.00,VWS V14.01,2013-08-04 01:09:00,
2013-08-03 21:14:00,66.7,65.5,29.91,SW,215,0.0,0.0,96,0.00,,CLR,0.24,0.00,VWS V14.01,2013-08-04 01:14:00,
2013-08-03 21:19:00,66.6,65.4,29.91,SSW,205,0.0,0.0,96,0.00,,CLR,0.24,0.00,VWS V14.01,2013-08-04 01:19:00,
2013-08-03 21:24:00,66.5,65.3,29.91,SSW,205,0.0,0.0,96,0.00,,CLR,0.24,0.00,VWS V14.01,2013-08-04 01:24:00,
2013-08-03 21:29:00,66.4,65.2,29.91,SSW,205,0.0,0.0,96,0.00,,CLR,0.24,0.00,VWS V14.01,2013-08-04 01:29:00,
2013-08-03 21:34:00,66.3,65.1,29.91,SSW,205,0.0,0.0,96,0.00,,CLR,0.24,0.00,VWS V14.01,2013-08-04 01:34:00,
2013-08-03 21:40:00,66.2,65.0,29.92,SSW,205,0.0,0.0,96,0.00,,CLR,0.24,0.00,VWS V14.01,2013-08-04 01:40:00,
2013-08-03 21:45:00,66.1,64.9,29.92,SSW,205,0.0,0.0,96,0.00,,CLR,0.24,0.00,VWS V14.01,2013-08-04 01:45:00,
2013-08-03 21:50:00,66.0,64.8,29.92,SSW,205,0.0,0.0,96,0.00,,CLR,0.24,0.00,VWS V14.01,2013-08-04 01:50:00,
2013-08-03 21:55:00,65.9,65.0,29.92,SSW,205,0.0,0.0,97,0.00,,CLR,0.24,0.00,VWS V14.01,2013-08-04 01:55:00,
2013-08-03 22:00:00,65.8,64.9,29.92,SSW,205,0.0,0.0,97,0.00,,CLR,0.24,0.00,VWS V14.01,2013-08-04 02:00:00,
2013-08-03 22:05:00,65.6,64.4,29.91,SSW,205,0.0,0.0,96,0.00,,CLR,0.24,0.00,VWS V14.01,2013-08-04 02:05:00,
2013-08-03 22:10:00,65.5,64.3,29.91,SSW,205,0.0,0.0,96,0.00,,CLR,0.24,0.00,VWS V14.01,2013-08-04 02:10:00,
2013-08-03 22:15:00,65.4,64.2,29.91,SSW,205,0.0,0.0,96,0.00,,CLR,0.24,0.00,VWS V14.01,2013-08-04 02:15:00,
2013-08-03 22:20:00,65.4,64.5,29.91,SSW,205,0.0,0.0,97,0.00,,CLR,0.24,0.00,VWS V14.01,2013-08-04 02:20:00,
2013-08-03 22:25:00,65.3,64.4,29.91,SSW,205,0.0,0.0,97,0.00,,CLR,0.24,0.00,VWS V14.01,2013-08-04 02:25:00,
2013-08-03 22:30:00,65.2,64.3,29.91,SSW,205,0.0,0.0,97,0.00,,CLR,0.24,0.00,VWS V14.01,2013-08-04 02:30:00,
2013-08-03 22:35:00,65.1,64.2,29.91,SSW,205,0.0,0.0,97,0.00,,CLR,0.24,0.00,VWS V14.01,2013-08-04 02:35:00,
2013-08-03 22:40:00,65.0,64.1,29.91,SSW,205,0.0,0.0,97,0.00,,CLR,0.24,0.00,VWS V14.01,2013-08-04 02:40:00,
2013-08-03 22:45:00,65.0,64.1,29.92,SSW,205,0.0,0.0,97,0.00,,CLR,0.24,0.00,VWS V14.01,2013-08-04 02:45:00,
2013-08-03 22:50:00,64.9,64.0,29.91,SSW,205,0.0,0.0,97,0.00,,CLR,0.24,0.00,VWS V14.01,2013-08-04 02:50:00,
2013-08-03 22:56:00,64.9,64.0,29.91,SSW,205,0.0,0.0,97,0.00,,CLR,0.24,0.00,VWS V14.01,2013-08-04 02:56:00,
2013-08-03 23:01:00,64.9,64.0,29.92,SSW,205,0.0,0.0,97,0.00,,CLR,0.24,0.00,VWS V14.01,2013-08-04 03:01:00,
2013-08-03 23:06:00,64.9,64.0,29.92,SSW,205,0.0,0.0,97,0.00,,CLR,0.24,0.00,VWS V14.01,2013-08-04 03:06:00,
2013-08-03 23:11:00,64.9,64.0,29.92,SSW,205,0.0,0.0,97,0.00,,CLR,0.24,0.00,VWS V14.01,2013-08-04 03:11:00,
2013-08-03 23:16:00,64.8,63.9,29.92,SSW,205,0.0,0.0,97,0.00,,CLR,0.24,0.00,VWS V14.01,2013-08-04 03:16:00,
2013-08-03 23:21:00,64.8,64.2,29.92,SSW,205,0.0,1.0,98,0.00,,CLR,0.24,0.00,VWS V14.01,2013-08-04 03:21:00,
2013-08-03 23:26:00,64.9,64.3,29.92,SSW,205,0.0,0.0,98,0.00,,CLR,0.24,0.00,VWS V14.01,2013-08-04 03:26:00,
2013-08-03 23:31:00,65.0,64.4,29.92,SSW,205,0.0,1.0,98,0.00,,CLR,0.24,0.00,VWS V14.01,2013-08-04 03:31:00,
2013-08-03 23:36:00,65.1,64.5,29.92,SSW,205,0.0,0.0,98,0.00,,CLR,0.24,0.00,VWS V14.01,2013-08-04 03:36:00,
2013-08-03 23:41:00,65.2,64.6,29.92,SSW,203,0.0,0.0,98,0.00,,CLR,0.24,0.00,VWS V14.01,2013-08-04 03:41:00,
2013-08-03 23:46:00,65.3,64.7,29.92,SSW,203,0.0,0.0,98,0.00,,CLR,0.24,0.00,VWS V14.01,2013-08-04 03:46:00,
2013-08-03 23:52:00,65.3,64.7,29.92,SSW,203,0.0,0.0,98,0.00,,CLR,0.24,0.00,VWS V14.01,2013-08-04 03:52:00,
2013-08-03 23:57:00,65.3,64.7,29.92,SSW,203,0.0,0.0,98,0.00,,CLR,0.24,0.00,VWS V14.01,2013-08-04 03:57:00,